Dewpoint
61 60 61 65 65 67 66 67 67 67 67 67 67 66 64 66 66 65 65 67 68 69 69 70 70 70 70 70 70 71 71 70 70 69 68 69 70 70 69 70 68 70 68 67 69 72 73 73 73 72 73 74 74 74 75 75 75 74 74 75 75 74 74
60 61 63 66 66 66 65 66 67 66 66 66 65 65 64 63 65 64 66 67 68 68 68 69 69 69 69 69 69 69 70 69 70 70 69 70 70 70 69 69 69 68 68 68 69 70 70 70 70 70 72 72 72 74 74 74 74 75 74 74 73 74 74
59 62 63 66 67 63 63 61 63 62 62 61 61 62 62 64 63 65 65 65 67 67 67 68 68 68 69 68 68 68 68 68 67 65 63 65 66 67 68 69 69 67 68 68 69 67 67 70 69 70 70 70 70 72 74 75 74 74 73 74 74 73 74
64 65 65 66 65 64 58 59 57 56 56 58 58 60 61 65 63 65 64 63 65 66 66 66 67 67 67 67 67 67 66 66 67 64 65 66 67 67 67 68 68 69 67 68 68 67 69 69 68 70 70 69 69 69 71 73 74 74 73 74 73 73 73
64 65 65 66 66 65 60 56 55 57 56 57 60 60 61 64 64 62 61 63 65 66 66 66 66 67 67 67 67 66 67 64 66 67 68 67 67 67 67 66 67 67 68 68 68 68 69 68 67 68 68 70 68 67 68 69 71 74 73 73 74 73 73
64 64 64 66 64 55 53 52 52 53 55 56 58 58 60 61 62 61 60 60 64 66 67 67 67 67 67 66 67 66 68 67 68 69 68 67 67 65 66 66 67 68 66 66 67 68 68 67 68 68 68 66 65 65 65 67 67 70 73 74 73 72 72
64 64 64 66 61 55 54 54 55 56 58 61 61 60 61 61 61 61 62 59 58 63 62 64 65 66 65 66 66 66 66 66 67 67 67 67 65 65 65 67 67 66 67 68 69 68 67 67 68 68 67 68 68 68 68 69 69 69 71 73 73 73 73
63 64 67 66 57 56 57 59 58 60 61 63 63 64 62 61 63 63 62 60 60 59 61 62 60 66 66 66 65 66 65 66 67 67 67 67 68 66 64 64 66 67 67 64 67 68 66 66 66 66 67 66 67 68 68 69 69 68 68 68 69 70 70
64 65 66 63 63 64 64 64 63 63 63 63 65 65 65 66 65 62 61 61 61 62 61 58 60 61 66 66 65 64 64 66 66 65 65 66 67 67 66 63 65 67 67 66 66 65 65 65 66 68 69 68 68 69 67 68 68 68 68 68 69 69 67
66 67 69 66 65 65 65 65 66 66 67 67 66 64 64 66 67 67 65 62 57 57 61 62 61 64 65 65 61 61 61 60 63 66 65 65 65 66 66 66 66 66 66 67 67 66 66 67 68 68 68 68 67 66 67 67 68 68 68 67 68 67 67
65 66 66 63 64 64 65 65 66 67 68 67 67 66 66 65 67 68 66 62 58 58 58 58 63 62 63 64 63 63 64 64 65 65 65 65 65 66 66 66 65 65 64 66 65 67 67 67 68 67 67 65 63 64 65 66 66 67 66 66 66 67 66
64 65 63 63 64 64 63 65 66 67 67 67 66 67 65 66 64 64 61 62 58 58 58 59 58 61 61 60 61 64 64 64 65 64 65 65 64 65 65 65 66 65 64 66 66 67 66 66 66 65 65 64 63 63 64 66 66 67 67 67 65 66 67
63 64 63 63 63 65 66 65 65 66 66 65 66 67 63 63 62 62 64 64 61 62 62 62 62 65 64 60 60 63 63 63 63 64 63 63 64 65 65 65 64 65 65 66 67 66 65 65 66 65 62 64 63 64 65 66 66 67 66 67 68 68 67
62 62 62 63 63 63 64 64 65 66 65 66 66 64 64 63 63 63 63 62 64 64 64 63 64 63 63 63 62 63 61 63 62 63 65 65 66 66 65 64 65 65 66 66 66 65 64 65 63 63 65 64 65 66 66 66 65 66 69 68 67 67 66
59 61 62 62 63 64 63 63 64 65 65 65 66 64 62 63 63 64 65 65 66 63 64 65 65 64 61 63 63 63 62 64 62 63 64 65 66 65 65 65 65 65 65 65 65 65 65 65 64 63 64 64 65 65 65 65 63 67 67 67 66 67 67
57 58 60 61 62 62 62 62 62 63 62 63 61 62 63 63 64 64 63 63 64 65 65 65 64 64 64 64 63 64 64 64 64 64 64 64 64 65 65 65 65 64 64 65 65 65 65 65 65 64 63 63 63 64 64 63 62 66 68 67 67 67 66
58 59 60 61 62 61 60 61 59 59 60 60 61 62 62 63 62 61 62 62 64 64 65 65 65 64 62 64 64 65 65 63 63 63 64 64 63 64 64 65 64 65 64 64 64 65 65 64 65 64 63 62 62 61 62 62 64 68 68 68 67 66 66
59 60 58 56 58 58 59 60 59 61 62 61 62 61 62 63 62 62 62 63 63 64 64 64 64 63 64 63 63 63 63 62 62 63 63 63 63 63 64 64 64 64 64 64 64 64 64 64 64 64 64 63 64 63 62 62 68 65 66 66 66 66 66
50 51 52 53 56 58 58 58 60 61 60 61 63 63 61 62 62 61 62 63 63 63 63 63 63 63 62 62 61 62 61 61 61 61 62 62 62 63 63 63 63 63 63 63 63 63 64 64 63 63 64 64 64 64 63 63 64 65 64 64 64 65 66
52 54 54 55 55 56 58 59 62 61 61 61 61 61 61 62 61 61 62 62 63 62 62 61 61 61 61 60 60 60 60 61 61 61 61 62 62 62 62 62 62 61 61 62 63 62 62 62 62 62 63 63 64 64 64 63 64 62 61 61 61 63 66
51 51 54 56 57 57 58 59 60 60 61 61 61 62 61 61 61 61 61 61 61 60 61 60 60 60 59 59 60 60 60 60 60 60 61 61 61 61 61 61 61 61 61 61 61 61 62 62 61 61 61 62 62 62 62 62 60 60 59 59 59 62 65
48 49 51 53 58 58 58 57 59 59 61 62 61 61 61 60 60 60 60 60 59 59 59 58 58 58 58 58 59 59 59 59 60 60 60 60 61 60 60 61 61 61 61 61 61 60 61 61 61 61 61 62 62 61 61 60 58 58 57 57 57 61 60
45 46 47 50 50 53 57 57 58 59 60 60 60 60 59 59 59 59 59 57 57 58 57 57 57 56 57 57 57 58 58 59 59 59 59 59 59 59 59 60 60 61 61 60 60 59 60 60 60 62 61 62 62 61 61 59 57 56 56 55 56 58 57
45 45 46 49 52 50 52 55 56 56 58 58 58 58 58 57 58 58 56 56 56 56 55 56 56 55 55 56 56 58 59 59 59 58 59 59 59 58 59 59 60 61 61 60 60 60 60 61 60 61 61 60 60 61 62 60 57 55 54 54 55 57 55
45 45 47 50 51 49 48 53 54 54 57 56 56 57 56 56 56 54 54 54 54 54 53 55 55 55 55 56 56 57 58 58 59 59 58 58 58 58 58 59 59 60 60 60 60 60 60 59 59 59 59 60 60 60 61 61 58 54 54 53 53 54 54
46 46 47 50 52 50 51 55 54 52 50 53 54 55 55 55 55 54 54 54 54 53 53 55 55 56 56 57 57 57 58 57 58 58 58 58 58 58 58 59 59 59 59 60 58 57 57 58 57 58 57 58 58 58 59 60 59 55 53 52 52 53 53
48 48 49 50 52 55 49 52 53 51 49 51 53 54 54 54 54 54 54 55 54 54 54 55 56 56 56 56 57 57 57 57 58 57 57 58 57 57 58 58 58 59 59 59 58 58 57 57 57 55 56 55 56 56 56 56 56 57 53 51 51 51 52
50 50 51 53 55 53 49 49 52 51 48 48 50 51 54 54 54 54 55 54 53 54 55 56 56 56 56 56 56 56 56 57 58 56 56 56 58 57 57 58 58 57 58 58 57 56 56 55 55 55 54 55 54 54 54 54 55 54 54 52 50 50 51
52 51 52 52 53 50 48 47 49 49 47 49 50 51 54 53 54 53 54 52 54 54 56 56 55 56 56 56 56 55 56 57 56 56 54 55 57 57 57 57 57 58 58 57 55 54 54 54 53 53 53 52 53 53 53 53 53 53 52 51 50 49 49
53 52 51 51 49 48 47 45 49 50 48 50 52 52 54 52 52 53 52 52 55 55 55 55 54 55 55 55 55 55 56 56 55 56 55 57 57 57 56 57 56 57 57 56 54 53 52 52 51 51 50 50 49 50 50 51 51 52 51 50 50 49 48
52 51 50 49 46 48 47 45 50 51 50 50 50 53 55 53 52 52 52 53 54 55 53 52 52 52 52 54 55 54 55 55 55 55 56 56 56 56 56 55 56 56 56 55 53 53 52 51 50 50 49 48 48 48 48 49 50 50 50 49 49 49 48
51 51 48 46 47 47 46 46 49 50 50 51 51 53 54 53 51 52 52 53 54 52 52 52 53 52 52 53 54 53 55 53 54 56 56 56 56 56 56 55 55 55 54 53 52 52 51 50 49 49 48 47 47 47 48 48 48 48 47 48 48 48 48
50 49 47 47 47 48 48 47 45 48 49 49 51 51 50 52 52 53 53 54 47 47 53 54 52 52 52 52 50 53 53 52 53 55 56 55 54 54 54 55 54 54 54 52 51 51 51 49 49 48 47 47 47 47 47 47 46 46 46 46 46 46 47
49 47 47 48 48 48 47 47 46 47 49 49 51 52 50 51 53 53 51 48 46 49 51 52 50 47 48 46 48 51 48 48 50 52 53 55 54 51 52 54 51 52 54 52 51 51 50 50 49 48 47 47 46 47 46 45 45 45 44 45 45 46 45
48 47 47 48 48 49 48 49 47 49 49 49 51 51 52 52 54 54 51 50 51 54 53 51 51 51 47 48 49 48 50 48 48 50 50 52 52 51 56 54 53 54 54 54 54 52 51 50 49 49 48 47 47 47 45 44 43 44 46 49 45 47 44
46 43 42 40 43 45 47 49 48 47 48 49 52 52 52 52 54 53 46 52 51 53 53 51 49 49 50 48 49 47 44 47 47 49 50 49 51 51 52 56 54 56 54 55 54 52 50 48 50 49 49 48 48 47 45 44 44 46 43 41 41 42 42
43 44 40 41 41 43 45 47 48 48 49 51 52 53 53 53 48 52 49 53 53 52 53 52 51 48 46 48 48 47 46 46 47 49 52 50 49 50 49 47 57 47 50 52 53 50 45 44 44 45 48 49 45 46 48 48 45 42 41 41 41 41 40
42 42 42 40 39 47 46 47 46 46 48 48 50 52 52 48 47 52 51 54 52 54 54 53 52 49 50 49 49 51 52 50 51 49 49 49 49 50 50 48 48 53 49 48 50 48 44 42 42 42 43 45 47 48 46 45 43 41 40 40 41 40 40